Вернуться в каталог

ONEWEB-0153

АктивенСвязьPO
NORAD 48044·PAYLOAD·🇬🇧 United Kingdom

Запущен Mar 25, 2021 с Vostochny Cosmodrome

Loading…

Ближайшие Пролёты (ближайшие 24 часа)

TLE

СвежийSource: CelesTrak SupGP

Эпоха: Sep 14, 2026, 09:10 UTC

1 48044C 21025C   26257.38248102 -.00000621  00000+0 -17035-2 0  2575
2 48044  87.8920 302.4796 0001845  98.2718 315.0965 13.13465447    18

Отслеживайте ONEWEB-0153 в реальном времени с AllMySat

Download on the App Store